Regional Weather Roundup
Issued by NWS

Home | Current Version | Previous Version | Graphics & Text | Print | Product List | Glossary On
Versions: 1 2 3 4 5 6 7 8 9 10 11 12 13 14 15 16 17 18 19 20 21 22 23 24 25 26 27 28 29 30 31 32 33 34 35 36 37 38 39 40 41 42 43 44 45 46 47 48 49 50
000
ASUS43 KMPX 032301
RWRMN
WEATHER ROUNDUP FOR MINNESOTA
NATIONAL WEATHER SERVICE TWIN CITIES/CHANHASSEN MN
600 PM CDT FRI JUL 03 2015


NOTE: "FAIR" INDICATES FEW OR NO CLOUDS BELOW 12,000 FEET WITH NO
SIGNIFICANT WEATHER AND/OR OBSTRUCTIONS TO VISIBILITY. N/A MEANS
CURRENT SKY AND/OR WEATHER CONDITIONS ARE NOT AVAILABLE.

MNZ060>063-068>070-040000-
   Twin Cities Metro

CITY           SKY/WX    TMP DP  RH WIND       PRES   REMARKS
TWIN CITIES    CLOUDY    78  57  48 W13       29.91S
ST PAUL        SUNNY     77  60  55 SW13      29.90F
CRYSTAL        MOSUNNY   80  58  46 SW10      29.90S
LAKEVILLE      SUNNY     75  57  53 W6        29.93S
EDEN PRAIRIE   MOSUNNY   78  60  53 SW7       29.91S
SOUTH ST PAUL  SUNNY     78  58  49 SW8       29.91S
LAKE ELMO      FAIR      77  59  53 SW8       29.92S
$$
MNZ001>005-007-008-013>017-022>024-027-028-040000-
   Northwest Minnesota

CITY           SKY/WX    TMP DP  RH WIND       PRES   REMARKS
BEMIDJI        MOSUNNY   77  59  53 N6        29.92S
HALLOCK        SUNNY     79  61  53 CALM      29.90F HAZE
ROSEAU         SUNNY     79  59  50 NW3       29.90F
WARROAD        SUNNY     75  61  60 E7        29.91S
THIEF RVR FALL SUNNY     77  61  57 W5        29.92S
CROOKSTON      SUNNY     79  61  53 N5        29.92S HAZE
FOSSTON        SUNNY     77  61  57 CALM      29.93S HAZE
DETROIT LAKES  MOSUNNY   79  59  50 NE6       29.94S HAZE
MOORHEAD       MOSUNNY   81  63  54 NE5       29.91S HAZE
PARK RAPIDS    CLOUDY    80  58  46 N9        29.92R HAZE
MAHNOMEN       FAIR      78  58  49 N6        29.92S
$$
MNZ006-009>011-018-025>026-040000-
   North Central Minnesota

CITY           SKY/WX    TMP DP  RH WIND       PRES   REMARKS
BAUDETTE       SUNNY     79  55  43 N7        29.91S
FLAG ISLAND    SUNNY     79  52  38 CALM      29.89S
INTL FALLS     MOSUNNY   79  53  40 NE8       29.89S
WASKISH        SUNNY     79  55  44 N5        29.91F
BIG FORK       SUNNY     77  55  47 N5        29.90S
LONGVILLE      SUNNY     77  57  50 NW3       29.91S
GRAND RAPIDS   SUNNY     79  54  41 N12       29.90S
CRANE LAKE     SUNNY     75  50  41 NW9       29.90R
ORR            SUNNY     79  52  38 NW3       29.88R
COOK           SUNNY     77  55  47 NW7       29.90R
WALKER         FAIR      76  57  51 N3        29.91S
$$
MNZ012-019>021-037-040000-
   Northeast Minnesota

CITY           SKY/WX    TMP DP  RH WIND       PRES   REMARKS
DULUTH         MOSUNNY   79  58  48 N7        29.87S SMOKE
ELY            MOSUNNY   75  50  41 N6        29.88R
HIBBING        SUNNY     78  56  46 NW10      29.89S
EVELETH        SUNNY     77  54  44 NW7       29.90
DULUTH HARBOR  SUNNY     82  63  51 NW9       29.84S
SILVER BAY     MOSUNNY   79  55  44 NW6       29.84R
GRAND MARAIS     N/A     53  47  79 W8        29.81R
G MARAIS ARPRT MOSUNNY   73  50  43 NW5       29.89R
$$
MNZ029>031-032-039>041-046>048-054>057-064-040000-
   West Central Minnesota

CITY           SKY/WX    TMP DP  RH WIND       PRES   REMARKS
FERGUS FALLS   MOSUNNY   81  61  50 E3        29.90S HAZE
WHEATON        SUNNY     79  64  61 W3        29.92S HAZE
MORRIS         SUNNY     81  64  57 NW3       29.91S HAZE
ALEXANDRIA     MOSUNNY   80  60  50 N6        29.93F HAZE
ELBOW LAKE     FAIR      80  62  55 NW3       29.91S HAZE
WADENA         MOSUNNY   79  61  53 N7        29.91F HAZE
GLENWOOD       MOSUNNY   81  63  54 NW6       29.93S HAZE
APPLETON       SUNNY     82  63  51 N6        29.91S HAZE
BENSON         SUNNY     81  63  54 N6        29.91S HAZE
ORTONVILLE     SUNNY     81  63  54 N6        29.92S HAZE
MADISON        MOSUNNY   82  63  51 CALM      29.91S
WILLMAR          N/A     81  66  61 SW5       29.93S
$$
MNZ033>034-036-042>043-049>051-058-059-040000-
   Central Minnesota

CITY           SKY/WX    TMP DP  RH WIND       PRES   REMARKS
ST CLOUD       PTSUNNY   80  65  59 SW10      29.89F
SAUK CENTRE    FAIR      79  64  60 W5        29.91S HAZE
PAYNESVILLE    MOSUNNY   77  64  63 SW8       29.92S
AITKIN         SUNNY     79  64  61 N5        29.88S HAZE
PINE RIVER       N/A     79  59  50 N9        29.94S HAZE
BRAINERD       CLOUDY    80  61  52 N6        29.90S HAZE
STAPLES        MOSUNNY   79  55  44 NW6       29.91S HAZE
LONG PRAIRIE   CLOUDY    79  63  57 W5        29.92S HAZE
LITTLE FALLS   CLOUDY    79  59  50 W8        29.90S HAZE
LITCHFIELD     MOSUNNY   79  63  57 W5        29.92F
BUFFALO        MOSUNNY   78  58  50 SW6       29.92S
MAPLE LAKE     MOSUNNY   79  64  60 SW6       29.92S
$$
MNZ037-044-045-052-053-040000-
   East Central Minnesota

CITY           SKY/WX    TMP DP  RH WIND       PRES   REMARKS
PRINCETON      MOSUNNY   81  64  57 SW9       29.89S
MORA             N/A     75  63  64 NW7       29.90S HAZE
CAMBRIDGE      MOSUNNY   81  64  57 SW7       29.87F
RUSH CITY      PTSUNNY   77  65  65 W3        29.89S
MOOSE LAKE     SUNNY     79  61  53 W6        29.86S HAZE
HINCKLEY       FAIR      79  66  65 W6        29.88S HAZE
CLOQUET        SUNNY     79  57  47 NW8       29.88R HAZE
MCGREGOR       MOSUNNY   79  59  50 NW7       29.89S
$$
MNZ071>073-080-081-089-090-097-098-040000-
   Southwest Minnesota

CITY           SKY/WX    TMP DP  RH WIND       PRES   REMARKS
MONTEVIDEO     SUNNY     84  66  54 CALM      29.92S
GRANITE FALLS  SUNNY     81  64  57 CALM      29.93S
CANBY          MOSUNNY   81  66  60 W5        29.93S
MARSHALL       SUNNY     81  63  54 CALM      29.92S
REDWOOD FALLS  SUNNY     80  59  48 VRB3      29.92F
OLIVIA         SUNNY     77  59  53 W3        29.92S
PIPESTONE      MOSUNNY   79  63  57 W3        29.96S
WINDOM         SUNNY     79  55  44 W6        29.95S
WORTHINGTON    SUNNY     75  57  53 SW3       29.96F
JACKSON        SUNNY     79  55  44 W6        29.97S
TRACY          SUNNY     81  63  55 SW3       29.94S
SLAYTON        SUNNY     79  61  53 CALM      29.96F
$$
MNZ065>067-074>077-082>085-091>093-040000-
   South Central Minnesota

CITY           SKY/WX    TMP DP  RH WIND       PRES   REMARKS
MANKATO        SUNNY     77  55  47 W6        29.94S
NEW ULM        SUNNY     77  55  47 W5        29.93S
ST JAMES       SUNNY     81  57  44 SW5       29.95S
FAIRMONT       SUNNY     79  45  29 CALM      29.94F
GLENCOE        MOSUNNY   79  61  53 W3        29.92S
FARIBAULT      SUNNY     75  55  50 W6        29.95S
OWATONNA       SUNNY     77  52  41 W6        29.95S
WASECA         SUNNY     77  55  47 W6        29.96S
ALBERT LEA     SUNNY     77  54  44 W3        29.95S
$$
MNZ078>079-086>088-094>096-040000-
   Southeast Minnesota

CITY           SKY/WX    TMP DP  RH WIND       PRES   REMARKS
ROCHESTER      SUNNY     76  55  48 W9        29.95F
RED WING       SUNNY     79  54  41 W8        29.90F
DODGE CENTER   SUNNY     75  54  46 W8        29.95S
WINONA         SUNNY     77  57  50 W3        29.92F
AUSTIN         SUNNY     77  50  38 W6        29.95S
PRESTON        SUNNY     74  56  52 W8        29.96S
$$
ABBREVIATIONS USED IN REMARKS
   TC - TEMPERATURES IN CELSIUS
  WCI - WIND CHILL INDEX
   HX - HEAT INDEX
  VSB - VISIBILITY
$$


USA.gov is the U.S. government's official web portal to all federal, state and local government web resources and services.